Preview of NWS' New Version of Forecast
This preview is not operational and should not be used for support decisions.

Regional Weather Roundup (RWR)

Issued by National Weather Service (NWS)

                            
000
ASUS43 KDMX 221806
RWRIA 

WEATHER ROUNDUP FOR IOWA
NATIONAL WEATHER SERVICE DES MOINES IA
100 PM CDT SUN SEP 22 2019

NOTE: "FAIR" INDICATES FEW OR NO CLOUDS BELOW 12,000 FEET WITH NO
SIGNIFICANT WEATHER AND/OR OBSTRUCTIONS TO VISIBILITY.

* - THESE STATIONS ARE NOT NWS STATIONS...THUS NOT UNDER NWS
QUALITY CONTROL.  THEY ALSO DO NOT REPORT WEATHER SUCH 
AS PRECIPITATION OR FOG.  

IAZ001>003-012>014-020>022-031>034-043>046-221900-
   NORTHWEST IOWA
  
CITY           SKY/WX    TMP DP  RH WIND       PRES   REMARKS
CARROLL *      CLOUDY    66  57  72 NW6       29.89R                  
CHEROKEE *     CLOUDY    67  59  76 N3        29.92S                  
DENISON *      CLOUDY    66  61  82 CALM      29.93R                  
LE MARS *      CLOUDY    68  59  73 NW10G16   29.92F                  
SIOUX CITY     MOSUNNY   67  56  67 N12       29.93S                  
6HR MIN TEMP:  57; 6HR MAX TEMP:  69; 6HR PCP:  0.09;                

SPENCER        CLOUDY    66  56  70 NW10      29.92R                  
6HR MIN TEMP:  60; 6HR MAX TEMP:  67; 6HR PCP:  0.03;                

STORM LAKE *     N/A     64  57  77 NW9       29.90R                  
$$
 
IAZ055>058-069>071-079>083-090>094-221900-
   SOUTHWEST IOWA
  
CITY           SKY/WX    TMP DP  RH WIND       PRES   REMARKS
ATLANTIC *       N/A     66  63  88 N10       29.89S                  
AUDUBON *        N/A     64  59  82 NW5       29.91R                  
CLARINDA *     CLOUDY    70  68  94 N12       29.89R                  
COUNCIL BLFS * CLOUDY    66  61  82 NW7G13    29.90F                  
CRESTON *      CLOUDY    66  64  94 N9        29.86F                  
HARLAN  *      CLOUDY    66  59  77 N5        29.92R                  
LAMONI         PTSUNNY   70  65  84 S5        29.86F                  
6HR MIN TEMP:  63; 6HR MAX TEMP:  70; 6HR PCP:  0.26;                

RED OAK *      CLOUDY    68  64  88 VRB7      29.90R                  
SHENANDOAH *   CLOUDY    68  64  88 NE8       29.88F                  
$$
 
IAZ047>049-059>061-072>074-084-221900-
   CENTRAL IOWA
  
CITY           SKY/WX    TMP DP  RH WIND       PRES   REMARKS
AMES           CLOUDY    64  62  93 NE9       29.86S FOG              
6HR MIN TEMP:  62; 6HR MAX TEMP:  66; 6HR PCP:  0.13;                

ANKENY *       CLOUDY    68  64  88 CALM      29.86R                  
BOONE *        CLOUDY    64  64 100 NE10      29.86S                  
CHARITON *     SUNNY     68  68 100 SW6       29.85R                  
DES MOINES     CLOUDY    67  63  87 SW3       29.84F                  
6HR MIN TEMP:  64; 6HR MAX TEMP:  67; 6HR PCP:  0.21;                

GRINNELL*      PTSUNNY   65  64  97 CALM      29.86F                  
KNOXVILLE *    MOSUNNY   66  66 100 CALM      29.85R                  
MARSHALLTOWN   CLOUDY    62  60  93 NE13      29.84F                  
6HR MIN TEMP:  62; 6HR MAX TEMP:  67; 6HR PCP:  0.06;                

NEWTON *       PTSUNNY   68  66  94 CALM      29.84R                  
PELLA *        PTSUNNY   67  65  96 CALM      29.86S                  
PERRY *        CLOUDY    66  62  86 NE8       29.87S                  
$$
 
IAZ004>006-015-016-023>025-035-036-221900-
   NORTH CENTRAL IOWA
  
CITY           SKY/WX    TMP DP  RH WIND       PRES   REMARKS
ALGONA *       PTSUNNY   66  59  77 N6        29.87R                  
CLARION *      MOSUNNY   66  63  88 VRB3      29.86R                  
ESTHERVILLE    CLOUDY    60  54  80 NW10      29.90R                  
6HR MIN TEMP:  58; 6HR MAX TEMP:  61; 6HR PCP: TRACE;                

FORT DODGE *   CLOUDY    66  61  84 SE3       29.88R                  
MASON CITY     PTSUNNY   65  59  81 E5        29.84F                  
6HR MIN TEMP:  63; 6HR MAX TEMP:  68; 6HR PCP:  0.01;                

FOREST CITY *  PTSUNNY   66  59  77 CALM      29.85S                  
IOWA FALLS *     N/A     62  58  87 N3        29.87R                  
$$

IAZ007>011-017>019-026>030-037>042-050>054-066-221900-
   NORTHEAST IOWA
  
CITY           SKY/WX    TMP DP  RH WIND       PRES   REMARKS
CEDAR RAPIDS   LGT RAIN  66  66 100 W7        29.88S FOG              
6HR MIN TEMP:  65; 6HR MAX TEMP:  67; 6HR PCP:  0.35;                

CHARLES CITY * FAIR      66  61  82 CALM      29.84F                  
CLINTON *      RAIN      68  68 100 SW8       29.88F                  
DECORAH *      FAIR      66  64  94 S3        29.85F                  
DUBUQUE        LGT RAIN  67  66  97 W9        29.88S                  
6HR MIN TEMP:  66; 6HR MAX TEMP:  67; 6HR PCP:  0.26;                

MONTICELLO *   FAIR      68  68 100 W6        29.87F                  
OELWEIN *      SUNNY     66  66 100 CALM      29.87F                  
WATERLOO       LGT RAIN  68  62  81 N5        29.85F                  
6HR MIN TEMP:  67; 6HR MAX TEMP:  70; 6HR PCP:  0.12;                

$$
 
IAZ064-065-067-068-078-221900-
   EAST CENTRAL IOWA
  
CITY           SKY/WX    TMP DP  RH WIND       PRES   REMARKS
DAVENPORT      LGT RAIN  69  66  90 SW7       29.89F FOG              
6HR MIN TEMP:  68; 6HR MAX TEMP:  72; 6HR PCP:  0.65;                

IOWA CITY      RAIN      69  66  90 W6        29.89F FOG              
6HR MIN TEMP:  69; 6HR MAX TEMP:  70; 6HR PCP:  0.18;                

MUSCATINE *    FAIR      70  66  88 S6        29.87F                  
QUAD CITIES    LGT RAIN  71  68  90 W3        29.87F                  
6HR MIN TEMP:  69; 6HR MAX TEMP:  72; 6HR PCP:  0.31;                

$$
 
IAZ062-063-075>077-085>089-095>099-221900-
   SOUTHEAST IOWA
  
CITY           SKY/WX    TMP DP  RH WIND       PRES   REMARKS
BURLINGTON     LGT RAIN  69  67  93 S6        29.87F FOG              
6HR MIN TEMP:  67; 6HR MAX TEMP:  69; 6HR PCP:  0.37;                

FAIRFIELD *    PTSUNNY   66  66 100 SW6       29.89R FOG              
FORT MADISON * LGT RAIN  68  68 100 S5        29.88F                  
KEOKUK *       HVY RAIN  68  68 100 CALM      29.87F VSB 1/2          
OSKALOOSA *    RAIN      66  64  96 SE10      29.83F                  
CENTERVILLE *  LGT RAIN  64  64 100 SE8       29.86F                  
OTTUMWA        RAIN      66  65  96 SE12      29.84F FOG              
6HR MIN TEMP:  64; 6HR MAX TEMP:  67; 6HR PCP:  0.55;                

WASHINGTON *   LGT RAIN  68  68 100 SW6       29.87S                  
$$

ABBREVIATIONS USED IN REMARKS
   TC - TEMPERATURES IN CELSIUS
  WCI - WIND CHILL INDEX
   HX - HEAT INDEX
  VSB - VISIBILITY  
$$